Location: Dürabuch
(48.2640°N, 11.2185°E)
Time: 19:54:18
(UTC+00:00)

CZ-2D R/B - Pass Details

Date: 22 May 2025
Orbit: 790 x 841 km, 98.8° (Epoch: 16 June)

Event Time Altitude Azimuth Distance (km) Brightness Sun altitude
Rises 00:45:15 0° 23° (NNE) 3,407 7.1 -18.2°
Reaches altitude 10° 00:47:57 10° 34° (NE) 2,469 5.9 -18.0°
Maximum altitude 00:52:41 29° 94° (E) 1,494 3.7 -17.7°
Enters shadow 00:57:06 11° 152° (SSE) 2,361 4.2 -17.4°
